| time (UTC) | temp F | wind direction | speed MPH | gust MPH | rain 1hr in | rain 24hr in | rain mn in | humidity % | barometer mb |
| 20260504191003 | 53 | 0 | 0.0 | 0.0 | 0.00 | 0.06 | 0.01 | 77 | 1013.1 |
| 20260504190503 | 53 | 0 | 0.0 | 0.0 | 0.00 | 0.06 | 0.01 | 77 | 1013.1 |
| 20260504190218 | 54 | 0 | 0.0 | 0.0 | 0.00 | 0.06 | 0.01 | 77 | 1012.9 |
| 20260504185503 | 54 | 0 | 0.0 | 0.0 | 0.00 | 0.06 | 0.01 | 77 | 1013.0 |
| 20260504185003 | 54 | 0 | 0.0 | 0.0 | 0.00 | 0.07 | 0.01 | 76 | 1012.9 |
| 20260504184503 | 54 | 0 | 0.0 | 0.0 | 0.00 | 0.07 | 0.01 | 76 | 1013.0 |
| 20260504184003 | 55 | 0 | 0.0 | 0.0 | 0.00 | 0.07 | 0.01 | 76 | 1013.0 |
| 20260504183503 | 55 | 0 | 0.0 | 0.0 | 0.00 | 0.07 | 0.01 | 76 | 1013.1 |
| 20260504183218 | 55 | 0 | 0.0 | 0.0 | 0.00 | 0.07 | 0.01 | 76 | 1013.0 |
| 20260504182717 | 55 | 0 | 0.0 | 0.0 | 0.00 | 0.07 | 0.01 | 75 | 1013.1 |
| 20260504182003 | 56 | 145 | 0.0 | 1.0 | 0.00 | 0.07 | 0.01 | 75 | 1012.8 |
| 20260504181503 | 56 | 145 | 0.0 | 1.0 | 0.00 | 0.07 | 0.01 | 75 | 1013.0 |
| 20260504181003 | 56 | 0 | 0.0 | 0.0 | 0.00 | 0.07 | 0.01 | 75 | 1012.8 |
| 20260504180503 | 56 | 124 | 0.0 | 1.0 | 0.00 | 0.07 | 0.01 | 75 | 1012.9 |
| 20260504180003 | 56 | 116 | 0.0 | 1.0 | 0.00 | 0.07 | 0.01 | 74 | 1012.6 |
| 20260504175503 | 56 | 109 | 0.0 | 1.0 | 0.00 | 0.07 | 0.01 | 74 | 1012.8 |
| 20260504175003 | 57 | 109 | 0.0 | 1.0 | 0.00 | 0.07 | 0.01 | 74 | 1012.8 |
| 20260504174503 | 57 | 0 | 0.0 | 0.0 | 0.00 | 0.07 | 0.01 | 74 | 1012.6 |
| 20260504174218 | 57 | 0 | 0.0 | 1.0 | 0.00 | 0.07 | 0.01 | 74 | 1012.8 |
| 20260504173716 | 57 | 134 | 0.0 | 1.0 | 0.00 | 0.07 | 0.01 | 74 | 1012.8 |
| 20260504173003 | 58 | 0 | 0.0 | 0.0 | 0.00 | 0.07 | 0.01 | 74 | 1013.1 |
| 20260504172716 | 58 | 186 | 0.0 | 1.0 | 0.00 | 0.07 | 0.01 | 74 | 1013.1 |
| 20260504172003 | 58 | 271 | 0.0 | 1.0 | 0.00 | 0.07 | 0.01 | 73 | 1013.0 |
| 20260504171718 | 58 | 319 | 0.0 | 1.0 | 0.00 | 0.07 | 0.01 | 73 | 1013.1 |
| 20260504171003 | 58 | 341 | 0.0 | 4.0 | 0.00 | 0.07 | 0.01 | 74 | 1012.9 |
| 20260504170503 | 58 | 216 | 0.0 | 4.0 | 0.00 | 0.07 | 0.01 | 74 | 1012.8 |
| 20260504170217 | 58 | 203 | 0.0 | 4.0 | 0.00 | 0.07 | 0.01 | 74 | 1012.7 |
| 20260504160217 | 59 | 219 | 0.0 | 4.0 | 0.00 | 0.07 | 0.01 | 73 | 1012.9 |
| 20260504151003 | 60 | 110 | 0.0 | 3.0 | 0.00 | 0.07 | 0.01 | 74 | 1013.2 |
| 20260504150503 | 60 | 190 | 1.0 | 4.0 | 0.00 | 0.07 | 0.01 | 74 | 1013.1 |
| 20260504150216 | 60 | 204 | 1.0 | 4.0 | 0.00 | 0.07 | 0.01 | 74 | 1013.1 |
| 20260504141003 | 59 | 225 | 1.0 | 7.0 | 0.00 | 0.07 | 0.01 | 77 | 1013.5 |
| 20260504140503 | 58 | 236 | 2.0 | 8.0 | 0.00 | 0.07 | 0.01 | 76 | 1013.5 |
| 20260504140218 | 58 | 220 | 1.0 | 8.0 | 0.00 | 0.07 | 0.01 | 76 | 1013.6 |
| 20260504130503 | 59 | 228 | 1.0 | 10.0 | 0.00 | 0.07 | 0.01 | 75 | 1013.6 |
| 20260504130218 | 59 | 215 | 1.0 | 10.0 | 0.00 | 0.07 | 0.01 | 76 | 1013.8 |
| 20260504110503 | 58 | 210 | 2.0 | 5.0 | 0.00 | 0.07 | 0.01 | 79 | 1013.7 |
| 20260504100503 | 56 | 145 | 1.0 | 4.0 | 0.00 | 0.07 | 0.01 | 81 | 1013.7 |
| 20260504082003 | 55 | 222 | 1.0 | 10.0 | 0.00 | 0.07 | 0.01 | 84 | 1013.0 |
| 20260504081503 | 55 | 201 | 1.0 | 4.0 | 0.00 | 0.07 | 0.01 | 84 | 1012.9 |
| 20260504081218 | 55 | 182 | 1.0 | 4.0 | 0.00 | 0.07 | 0.01 | 84 | 1013.0 |
| 20260504080503 | 55 | 212 | 1.0 | 3.0 | 0.00 | 0.07 | 0.01 | 84 | 1012.8 |
| 20260504050503 | 53 | 203 | 0.0 | 1.0 | 0.00 | 0.07 | 0.01 | 91 | 1011.2 |
| 20260504050003 | 53 | 284 | 0.0 | 1.0 | 0.00 | 0.07 | 0.01 | 91 | 1011.3 |
| 20260504045503 | 53 | 209 | 0.0 | 1.0 | 0.00 | 0.07 | 0.01 | 91 | 1011.0 |
| 20260504045003 | 53 | 225 | 0.0 | 3.0 | 0.00 | 0.07 | 0.01 | 91 | 1010.9 |
| 20260504044504 | 53 | 224 | 0.0 | 3.0 | 0.00 | 0.07 | 0.01 | 91 | 1010.8 |
| 20260504044003 | 53 | 234 | 0.0 | 3.0 | 0.00 | 0.07 | 0.01 | 91 | 1011.0 |
| 20260504043503 | 53 | 239 | 0.0 | 3.0 | 0.00 | 0.07 | 0.01 | 91 | 1010.8 |
| 20260504043003 | 53 | 212 | 0.0 | 1.0 | 0.00 | 0.07 | 0.01 | 92 | 1010.8 |
| 20260504042718 | 53 | 214 | 0.0 | 1.0 | 0.00 | 0.07 | 0.01 | 92 | 1010.7 |
| 20260504042003 | 53 | 222 | 0.0 | 3.0 | 0.00 | 0.07 | 0.01 | 92 | 1010.7 |
| 20260504041503 | 52 | 257 | 0.0 | 3.0 | 0.00 | 0.07 | 0.01 | 92 | 1010.8 |
| 20260504041216 | 52 | 230 | 0.0 | 4.0 | 0.00 | 0.07 | 0.01 | 92 | 1010.8 |
| 20260504040503 | 52 | 232 | 0.0 | 4.0 | 0.00 | 0.07 | 0.01 | 92 | 1010.9 |
| 20260504040003 | 52 | 262 | 0.0 | 5.0 | 0.00 | 0.07 | 0.01 | 92 | 1010.8 |
| 20260504035503 | 52 | 266 | 1.0 | 5.0 | 0.00 | 0.07 | 0.01 | 92 | 1010.6 |
| 20260504035216 | 53 | 264 | 1.0 | 5.0 | 0.00 | 0.07 | 0.01 | 92 | 1010.5 |
| 20260504034717 | 52 | 261 | 1.0 | 4.0 | 0.00 | 0.07 | 0.01 | 91 | 1010.5 |
| 20260504034003 | 53 | 251 | 1.0 | 5.0 | 0.00 | 0.07 | 0.01 | 91 | 1010.5 |
| 20260504033503 | 53 | 228 | 1.0 | 5.0 | 0.00 | 0.07 | 0.01 | 91 | 1010.7 |
| 20260504033003 | 53 | 249 | 1.0 | 7.0 | 0.00 | 0.07 | 0.01 | 91 | 1010.4 |
| 20260504032503 | 53 | 238 | 2.0 | 7.0 | 0.00 | 0.07 | 0.01 | 91 | 1010.4 |
| 20260504032003 | 53 | 223 | 2.0 | 7.0 | 0.00 | 0.07 | 0.01 | 91 | 1010.5 |
| 20260504031503 | 53 | 216 | 1.0 | 7.0 | 0.00 | 0.07 | 0.01 | 91 | 1010.6 |
| 20260504031218 | 53 | 219 | 1.0 | 7.0 | 0.00 | 0.07 | 0.01 | 91 | 1010.3 |
| 20260504030503 | 53 | 205 | 1.0 | 7.0 | 0.00 | 0.07 | 0.01 | 91 | 1010.4 |
| 20260504030003 | 53 | 246 | 2.0 | 11.0 | 0.00 | 0.07 | 0.01 | 91 | 1010.3 |
| 20260504025503 | 53 | 246 | 2.0 | 11.0 | 0.00 | 0.07 | 0.01 | 91 | 1010.4 |
| 20260504025003 | 53 | 214 | 2.0 | 11.0 | 0.00 | 0.07 | 0.01 | 91 | 1010.2 |
| 20260504024503 | 53 | 197 | 2.0 | 10.0 | 0.00 | 0.07 | 0.01 | 91 | 1010.0 |
| 20260504024003 | 53 | 219 | 1.0 | 8.0 | 0.00 | 0.07 | 0.01 | 91 | 1010.0 |
| 20260504023503 | 54 | 256 | 1.0 | 8.0 | 0.00 | 0.07 | 0.01 | 91 | 1009.8 |
| 20260504023003 | 54 | 261 | 1.0 | 8.0 | 0.00 | 0.07 | 0.01 | 91 | 1010.2 |
| 20260504022503 | 54 | 191 | 0.0 | 7.0 | 0.00 | 0.07 | 0.01 | 90 | 1010.0 |
| 20260504022003 | 54 | 202 | 1.0 | 8.0 | 0.00 | 0.07 | 0.01 | 90 | 1010.0 |
| 20260504021503 | 54 | 221 | 2.0 | 11.0 | 0.00 | 0.07 | 0.01 | 90 | 1010.0 |
| 20260504021003 | 54 | 228 | 2.0 | 11.0 | 0.00 | 0.07 | 0.01 | 90 | 1009.7 |
| 20260504020503 | 54 | 251 | 2.0 | 11.0 | 0.00 | 0.07 | 0.01 | 90 | 1010.0 |
| 20260504020218 | 55 | 253 | 2.0 | 11.0 | 0.00 | 0.07 | 0.01 | 91 | 1009.7 |
| 20260504015503 | 55 | 220 | 2.0 | 11.0 | 0.00 | 0.07 | 0.01 | 91 | 1009.8 |
| 20260504015218 | 55 | 212 | 1.0 | 10.0 | 0.00 | 0.07 | 0.01 | 91 | 1009.7 |
| 20260504014503 | 56 | 192 | 2.0 | 8.0 | 0.00 | 0.07 | 0.01 | 91 | 1009.7 |
| 20260504014003 | 56 | 227 | 3.0 | 8.0 | 0.00 | 0.07 | 0.01 | 92 | 1009.7 |
| 20260504013503 | 56 | 235 | 2.0 | 7.0 | 0.00 | 0.07 | 0.01 | 92 | 1009.7 |
| 20260504013003 | 56 | 265 | 1.0 | 7.0 | 0.00 | 0.07 | 0.01 | 92 | 1009.7 |
| 20260504012503 | 56 | 269 | 2.0 | 11.0 | 0.00 | 0.07 | 0.01 | 92 | 1009.8 |
| 20260504012003 | 56 | 245 | 2.0 | 11.0 | 0.00 | 0.07 | 0.01 | 92 | 1009.6 |
| 20260504011716 | 56 | 232 | 2.0 | 10.0 | 0.00 | 0.07 | 0.01 | 92 | 1009.4 |
| 20260504011003 | 57 | 227 | 2.0 | 7.0 | 0.00 | 0.07 | 0.01 | 93 | 1009.6 |
| 20260504010503 | 57 | 252 | 2.0 | 8.0 | 0.00 | 0.07 | 0.01 | 93 | 1009.4 |
| 20260504010003 | 57 | 270 | 2.0 | 8.0 | 0.00 | 0.07 | 0.01 | 93 | 1009.5 |
| 20260504005503 | 57 | 249 | 2.0 | 7.0 | 0.00 | 0.07 | 0.01 | 93 | 1009.5 |
| 20260504005003 | 57 | 218 | 1.0 | 5.0 | 0.00 | 0.07 | 0.01 | 93 | 1009.4 |
| 20260504004503 | 57 | 217 | 1.0 | 5.0 | 0.00 | 0.07 | 0.01 | 93 | 1009.4 |
| 20260504004003 | 57 | 223 | 1.0 | 10.0 | 0.00 | 0.07 | 0.01 | 93 | 1009.1 |
| 20260504003718 | 57 | 224 | 1.0 | 10.0 | 0.00 | 0.07 | 0.01 | 93 | 1009.5 |
| 20260504003003 | 57 | 228 | 1.0 | 5.0 | 0.00 | 0.07 | 0.01 | 93 | 1009.2 |
| 20260504002503 | 57 | 243 | 1.0 | 7.0 | 0.00 | 0.07 | 0.01 | 93 | 1009.5 |
| 20260504002003 | 57 | 254 | 1.0 | 7.0 | 0.00 | 0.07 | 0.01 | 93 | 1009.3 |
| 20260504001503 | 57 | 245 | 1.0 | 7.0 | 0.00 | 0.07 | 0.01 | 93 | 1009.1 |
| 20260504001003 | 57 | 230 | 1.0 | 7.0 | 0.00 | 0.07 | 0.01 | 93 | 1009.2 |
| 20260504000718 | 57 | 238 | 1.0 | 7.0 | 0.00 | 0.07 | 0.01 | 93 | 1009.3 |
| 20260504000003 | 57 | 243 | 1.0 | 11.0 | 0.00 | 0.07 | 0.01 | 93 | 1009.2 |
| 20260503235503 | 58 | 248 | 1.0 | 12.0 | 0.00 | 0.07 | 0.01 | 93 | 1009.2 |
| 20260503235003 | 57 | 237 | 2.0 | 12.0 | 0.00 | 0.07 | 0.01 | 94 | 1009.1 |
| 20260503234503 | 57 | 217 | 2.0 | 10.0 | 0.00 | 0.07 | 0.01 | 94 | 1009.1 |
| 20260503234217 | 57 | 219 | 1.0 | 5.0 | 0.00 | 0.07 | 0.01 | 93 | 1009.3 |
| 20260503233503 | 57 | 239 | 1.0 | 5.0 | 0.00 | 0.07 | 0.01 | 93 | 1009.1 |
| 20260503233003 | 58 | 211 | 1.0 | 7.0 | 0.00 | 0.07 | 0.01 | 93 | 1009.0 |
| 20260503232503 | 58 | 206 | 1.0 | 7.0 | 0.00 | 0.07 | 0.01 | 93 | 1009.2 |
| 20260503232003 | 58 | 199 | 1.0 | 4.0 | 0.00 | 0.07 | 0.01 | 94 | 1009.2 |
| 20260503231503 | 58 | 209 | 0.0 | 4.0 | 0.00 | 0.07 | 0.01 | 94 | 1009.2 |
| 20260503231216 | 58 | 220 | 0.0 | 4.0 | 0.01 | 0.07 | 0.01 | 94 | 1009.2 |
| 20260503230503 | 58 | 218 | 1.0 | 5.0 | 0.01 | 0.07 | 0.01 | 94 | 1009.1 |
| 20260503230216 | 58 | 228 | 1.0 | 7.0 | 0.01 | 0.07 | 0.01 | 94 | 1009.1 |
| 20260503225503 | 58 | 246 | 2.0 | 7.0 | 0.01 | 0.07 | 0.01 | 94 | 1009.1 |
| 20260503225003 | 58 | 245 | 1.0 | 5.0 | 0.01 | 0.07 | 0.01 | 94 | 1009.2 |
| 20260503224503 | 58 | 233 | 1.0 | 8.0 | 0.01 | 0.07 | 0.01 | 94 | 1009.2 |
| 20260503224003 | 58 | 220 | 1.0 | 8.0 | 0.01 | 0.07 | 0.01 | 94 | 1009.1 |
| 20260503223503 | 58 | 217 | 2.0 | 8.0 | 0.01 | 0.07 | 0.01 | 94 | 1008.9 |
| 20260503223003 | 58 | 221 | 3.0 | 11.0 | 0.01 | 0.07 | 0.01 | 93 | 1009.1 |
| 20260503222503 | 58 | 220 | 2.0 | 11.0 | 0.01 | 0.07 | 0.01 | 93 | 1009.0 |
| 20260503222003 | 58 | 210 | 1.0 | 8.0 | 0.01 | 0.07 | 0.01 | 93 | 1008.8 |
| 20260503221503 | 58 | 209 | 1.0 | 5.0 | 0.01 | 0.07 | 0.01 | 93 | 1009.0 |
| 20260503221003 | 58 | 217 | 0.0 | 7.0 | 0.00 | 0.06 | 0.00 | 93 | 1009.0 |
| 20260503220503 | 58 | 229 | 1.0 | 7.0 | 0.00 | 0.06 | 0.00 | 93 | 1009.0 |
| 20260503220003 | 58 | 237 | 1.0 | 7.0 | 0.00 | 0.06 | 0.00 | 93 | 1009.2 |
| 20260503215503 | 58 | 235 | 1.0 | 5.0 | 0.00 | 0.06 | 0.06 | 93 | 1009.1 |
| 20260503215218 | 58 | 223 | 1.0 | 5.0 | 0.00 | 0.06 | 0.06 | 92 | 1009.1 |
| 20260503214503 | 58 | 214 | 1.0 | 4.0 | 0.00 | 0.06 | 0.06 | 92 | 1009.0 |
| 20260503214003 | 58 | 220 | 0.0 | 3.0 | 0.00 | 0.06 | 0.06 | 92 | 1009.0 |
| 20260503213503 | 58 | 223 | 1.0 | 4.0 | 0.00 | 0.06 | 0.06 | 92 | 1009.1 |
| 20260503213003 | 58 | 220 | 1.0 | 4.0 | 0.00 | 0.06 | 0.06 | 92 | 1009.1 |
| 20260503212503 | 58 | 219 | 1.0 | 4.0 | 0.00 | 0.06 | 0.06 | 92 | 1009.3 |
| 20260503212003 | 58 | 216 | 0.0 | 3.0 | 0.00 | 0.06 | 0.06 | 92 | 1009.1 |
| 20260503211503 | 58 | 216 | 0.0 | 3.0 | 0.01 | 0.06 | 0.06 | 91 | 1009.0 |
| 20260503211003 | 58 | 214 | 0.0 | 3.0 | 0.01 | 0.06 | 0.06 | 91 | 1009.1 |
| 20260503210503 | 59 | 193 | 0.0 | 3.0 | 0.01 | 0.06 | 0.06 | 91 | 1009.1 |
| 20260503210003 | 59 | 205 | 0.0 | 3.0 | 0.02 | 0.06 | 0.06 | 91 | 1009.1 |
| 20260503205503 | 59 | 214 | 0.0 | 3.0 | 0.02 | 0.06 | 0.06 | 91 | 1009.2 |
| 20260503205003 | 59 | 220 | 0.0 | 3.0 | 0.02 | 0.06 | 0.06 | 91 | 1009.2 |
| 20260503204503 | 59 | 200 | 0.0 | 3.0 | 0.02 | 0.06 | 0.06 | 90 | 1009.0 |
| 20260503204003 | 59 | 205 | 0.0 | 3.0 | 0.02 | 0.06 | 0.06 | 90 | 1008.9 |
| 20260503203503 | 59 | 219 | 0.0 | 3.0 | 0.02 | 0.06 | 0.06 | 90 | 1009.1 |
| 20260503203003 | 59 | 228 | 0.0 | 3.0 | 0.02 | 0.06 | 0.06 | 90 | 1009.3 |
| 20260503202503 | 59 | 225 | 0.0 | 3.0 | 0.02 | 0.06 | 0.06 | 90 | 1009.2 |
| 20260503202218 | 60 | 222 | 0.0 | 5.0 | 0.02 | 0.06 | 0.06 | 90 | 1009.2 |
| 20260503201503 | 60 | 234 | 1.0 | 5.0 | 0.03 | 0.05 | 0.05 | 90 | 1009.2 |
| 20260503201003 | 60 | 237 | 0.0 | 4.0 | 0.03 | 0.05 | 0.05 | 89 | 1009.1 |
| 20260503200716 | 60 | 208 | 0.0 | 3.0 | 0.03 | 0.05 | 0.05 | 89 | 1009.1 |
| 20260503200003 | 60 | 200 | 0.0 | 3.0 | 0.03 | 0.04 | 0.04 | 89 | 1009.1 |
| 20260503195503 | 60 | 207 | 0.0 | 4.0 | 0.04 | 0.04 | 0.04 | 89 | 1009.1 |
| 20260503195003 | 60 | 205 | 1.0 | 4.0 | 0.04 | 0.04 | 0.04 | 89 | 1009.1 |
| 20260503194503 | 60 | 215 | 1.0 | 4.0 | 0.04 | 0.04 | 0.04 | 88 | 1009.0 |
| 20260503194003 | 60 | 230 | 1.0 | 4.0 | 0.04 | 0.04 | 0.04 | 88 | 1009.0 |
| 20260503193503 | 60 | 226 | 1.0 | 4.0 | 0.04 | 0.04 | 0.04 | 87 | 1009.0 |
| 20260503193003 | 60 | 214 | 0.0 | 1.0 | 0.03 | 0.03 | 0.03 | 87 | 1009.0 |
| 20260503192503 | 60 | 0 | 0.0 | 0.0 | 0.03 | 0.03 | 0.03 | 86 | 1008.7 |
| 20260503192003 | 61 | 0 | 0.0 | 0.0 | 0.03 | 0.03 | 0.03 | 86 | 1008.7 |
| 20260503191718 | 61 | 0 | 0.0 | 0.0 | 0.03 | 0.03 | 0.03 | 85 | 1008.6 |